Date String (YYYY-MM-DD hh:mm:ss) UTC,Instrument flags,absolute air pressure of the measurement (hPa),sample flow rate (lpm),inlet stack bypass flow (lpm),air temperature of the measurement (°C),ambient temperature measured by the external sensor (°C),aerosol sample conditioner tube jacket temperature (°C),OPC LED temperature (°C),internal box temperature (°C),relative humidity of the measurement (%),span deviation,mass concentration of particles derived from Lorenz-Mie calculation of OPC scattering (μg/m³),mass concentration of particles derived from Lorenz-Mie calculation of OPC scattering (μg/m³),mass concentration of particles derived from Lorenz-Mie calculation of OPC scattering (μg/m³)
DateTimeUTC,F1_M11,P_M11,Q1_M11,Q2_M11,T1_M11,T2_M11,T3_M11,T4_M11,T5_M11,U1_M11,ZSPAN_M11,X0_M11,X2_M11,X1_M11
2023-08-14 15:00:00,SystemResetWarning,0841.8,5.00,000.00,029.8,027.6,000.0,038.2,031.3,20.1,0000.0,0006.86,0003.31,0002.98
2023-08-14 15:01:00,SystemResetWarning,0841.8,5.00,000.00,029.7,025.7,000.0,038.0,030.9,20.1,0000.0,0007.12,0003.30,0003.01
2023-08-14 15:02:00,SystemResetWarning,0841.8,5.01,000.00,029.7,025.3,000.0,037.9,030.8,20.2,0000.0,0007.37,0003.28,0003.02
2023-08-14 15:03:00,SystemResetWarning,0841.8,5.01,000.00,029.6,025.6,000.0,038.0,030.7,20.6,0000.0,0007.42,0003.29,0003.04
2023-08-14 15:04:00,SystemResetWarning,0841.8,4.99,000.00,029.5,026.0,000.0,038.0,030.7,20.4,0000.0,0007.46,0003.32,0003.06
2023-08-14 15:05:00,SystemResetWarning,0841.8,5.00,000.00,029.4,026.3,000.0,038.0,030.8,20.4,0000.0,0007.95,0003.34,0003.07
2023-08-14 15:06:00,SystemResetWarning,0841.8,5.00,000.00,029.4,026.7,000.0,038.0,030.8,20.5,0000.0,0007.60,0003.34,0003.07
2023-08-14 15:07:00,SystemResetWarning,0841.8,5.00,000.00,029.4,027.0,000.0,038.0,030.9,20.6,0000.0,0007.32,0003.33,0003.07
2023-08-14 15:08:00,SystemResetWarning,0841.8,4.99,000.00,029.4,027.3,000.0,038.0,031.0,20.6,0000.0,0007.34,0003.33,0003.09
2023-08-14 15:09:00,SystemResetWarning,0841.8,4.99,000.00,029.4,027.5,000.0,038.0,031.0,21.0,0000.0,0007.33,0003.34,0003.09
2023-08-14 15:10:00,SystemResetWarning,0841.8,5.00,000.00,029.4,027.7,000.0,038.0,031.0,21.1,0000.0,0007.38,0003.36,0003.10
2023-08-14 15:11:00,SystemResetWarning,0841.8,5.00,000.00,029.5,027.8,000.0,038.0,031.1,21.0,0000.0,0007.35,0003.34,0003.09
2023-08-14 15:12:00,SystemResetWarning,0841.9,5.01,000.00,029.5,028.0,000.0,038.0,031.1,21.1,0000.0,0006.67,0003.36,0003.09
2023-08-14 15:13:00,SystemResetWarning,0841.9,5.01,000.00,029.5,028.1,000.0,038.0,031.1,20.9,0000.0,0006.25,0003.38,0003.10
2023-08-14 15:14:00,SystemResetWarning,0841.9,4.99,000.00,029.5,028.2,000.0,038.1,031.2,20.7,0000.0,0006.31,0003.40,0003.10
2023-08-14 15:15:00,SystemResetWarning,0841.9,5.00,000.00,029.5,028.2,000.0,038.1,031.2,20.8,0000.0,0006.33,0003.40,0003.10
2023-08-14 15:16:00,SystemResetWarning,0841.9,4.99,000.00,029.6,028.3,000.0,038.1,031.2,20.5,0000.0,0005.68,0003.37,0003.09
2023-08-14 15:17:00,SystemResetWarning,0841.9,5.00,000.00,029.6,028.4,000.0,038.1,031.3,20.6,0000.0,0005.85,0003.36,0003.09
2023-08-14 15:18:00,SystemResetWarning,0841.9,5.00,000.00,029.6,028.4,000.0,038.1,031.3,20.8,0000.0,0005.81,0003.38,0003.10
2023-08-14 15:19:00,SystemResetWarning,0841.9,5.00,000.00,029.7,028.5,000.0,038.1,031.3,20.7,0000.0,0005.88,0003.39,0003.10
2023-08-14 15:20:00,SystemResetWarning,0841.9,5.00,000.00,029.7,028.5,000.0,038.2,031.4,21.0,0000.0,0005.96,0003.41,0003.11
2023-08-14 15:21:00,SystemResetWarning,0841.9,5.00,000.00,029.7,028.5,000.0,038.2,031.4,20.9,0000.0,0005.78,0003.37,0003.10
2023-08-14 15:22:00,SystemResetWarning,0841.9,4.99,000.00,029.7,027.2,000.0,038.0,031.2,20.7,0000.0,0005.87,0003.37,0003.09
2023-08-14 15:23:00,SystemResetWarning,0842.0,5.00,000.00,029.6,025.4,000.0,037.9,030.9,20.2,0000.0,0005.85,0003.35,0003.07
2023-08-14 15:24:00,SystemResetWarning,0841.9,5.01,000.00,029.5,025.3,000.0,037.8,030.7,20.0,0000.0,0005.84,0003.34,0003.06
2023-08-14 15:25:00,SystemResetWarning,0841.9,5.01,000.00,029.4,025.6,000.0,037.8,030.6,20.5,0000.0,0005.91,0003.33,0003.05
2023-08-14 15:26:00,SystemResetWarning,0842.0,4.99,000.00,029.4,025.9,000.0,037.9,030.6,20.6,0000.0,0006.17,0003.33,0003.04
2023-08-14 15:27:00,SystemResetWarning,0841.9,4.99,000.00,029.3,026.3,000.0,037.9,030.7,21.2,0000.0,0006.19,0003.33,0003.04
2023-08-14 15:28:00,SystemResetWarning,0842.0,5.00,000.00,029.3,026.7,000.0,037.9,030.8,21.1,0000.0,0006.01,0003.35,0003.05
2023-08-14 15:29:00,SystemResetWarning,0841.9,5.01,000.00,029.3,027.0,000.0,037.9,030.8,20.6,0000.0,0007.58,0003.35,0003.04
2023-08-14 15:30:00,SystemResetWarning,0841.9,5.01,000.00,029.3,027.2,000.0,037.9,030.9,20.5,0000.0,0007.92,0003.35,0003.03
2023-08-14 15:31:00,SystemResetWarning,0841.9,4.99,000.00,029.3,027.4,000.0,037.9,030.9,20.7,0000.0,0007.97,0003.33,0003.02
2023-08-14 15:32:00,SystemResetWarning,0841.9,5.00,000.00,029.4,027.6,000.0,037.9,031.0,20.5,0000.0,0007.95,0003.32,0003.01
2023-08-14 15:33:00,SystemResetWarning,0841.9,5.00,000.00,029.4,027.8,000.0,037.9,031.0,20.6,0000.0,0007.97,0003.32,0003.02
2023-08-14 15:34:00,SystemResetWarning,0841.9,5.00,000.00,029.4,027.9,000.0,037.9,031.0,20.8,0000.0,0008.01,0003.35,0003.04
2023-08-14 15:35:00,SystemResetWarning,0841.9,5.00,000.00,029.4,028.0,000.0,037.9,031.1,20.5,0000.0,0008.00,0003.35,0003.04
2023-08-14 15:36:00,SystemResetWarning,0841.9,4.99,000.00,029.4,028.1,000.0,038.0,031.1,20.3,0000.0,0007.99,0003.36,0003.04
2023-08-14 15:37:00,SystemResetWarning,0841.9,4.99,000.00,029.5,028.2,000.0,038.0,031.1,20.7,0000.0,0008.40,0003.39,0003.06
2023-08-14 15:38:00,SystemResetWarning,0841.9,5.00,000.00,029.5,028.3,000.0,038.0,031.2,21.0,0000.0,0008.73,0003.42,0003.08
2023-08-14 15:39:00,SystemResetWarning,0841.9,5.00,000.00,029.5,028.3,000.0,038.0,031.2,20.6,0000.0,0008.47,0003.41,0003.10
2023-08-14 15:40:00,SystemResetWarning,0841.8,5.01,000.00,029.6,028.4,000.0,038.0,031.2,20.4,0000.0,0007.46,0003.42,0003.10
2023-08-14 15:41:00,SystemResetWarning,0841.8,5.01,000.00,029.6,028.4,000.0,038.0,031.3,20.6,0000.0,0007.04,0003.44,0003.10
2023-08-14 15:42:00,SystemResetWarning,0841.9,5.00,000.00,029.6,028.5,000.0,038.1,031.3,20.8,0000.0,0006.97,0003.46,0003.11
2023-08-14 15:43:00,SystemResetWarning,0841.9,4.99,000.00,029.6,027.8,000.0,038.0,031.2,20.7,0000.0,0006.98,0003.47,0003.13
2023-08-14 15:44:00,SystemResetWarning,0841.8,5.00,000.00,029.6,025.8,000.0,037.9,030.9,20.8,0000.0,0007.52,0003.48,0003.13
2023-08-14 15:45:00,SystemResetWarning,0841.8,5.02,000.00,029.5,025.1,000.0,037.8,030.7,21.4,0000.0,0007.83,0003.48,0003.14
2023-08-14 15:46:00,SystemResetWarning,0841.8,5.00,000.00,029.4,025.4,000.0,037.8,030.6,21.3,0000.0,0007.98,0003.48,0003.15
2023-08-14 15:47:00,SystemResetWarning,0841.8,5.00,000.00,029.3,025.7,000.0,037.8,030.6,21.2,0000.0,0008.27,0003.48,0003.15
2023-08-14 15:48:00,SystemResetWarning,0841.8,5.00,000.00,029.3,026.1,000.0,037.8,030.6,21.3,0000.0,0008.26,0003.46,0003.15
2023-08-14 15:49:00,SystemResetWarning,0841.8,5.00,000.00,029.3,026.5,000.0,037.8,030.7,21.2,0000.0,0007.84,0003.45,0003.15
2023-08-14 15:50:00,SystemResetWarning,0841.8,5.01,000.00,029.3,026.8,000.0,037.8,030.8,21.3,0000.0,0007.77,0003.45,0003.15
2023-08-14 15:51:00,SystemResetWarning,0841.8,4.99,000.00,029.3,027.1,000.0,037.8,030.8,21.2,0000.0,0007.78,0003.45,0003.15
2023-08-14 15:52:00,SystemResetWarning,0841.8,4.99,000.00,029.3,027.3,000.0,037.8,030.9,21.2,0000.0,0007.75,0003.43,0003.15
2023-08-14 15:53:00,SystemResetWarning,0841.8,5.00,000.00,029.3,027.5,000.0,037.8,030.9,21.1,0000.0,0007.83,0003.41,0003.14
2023-08-14 15:54:00,SystemResetWarning,0841.8,5.00,000.00,029.3,027.7,000.0,037.9,031.0,21.5,0000.0,0007.90,0003.43,0003.13
2023-08-14 15:55:00,SystemResetWarning,0841.8,5.00,000.00,029.3,027.9,000.0,037.9,031.0,21.6,0000.0,0007.56,0003.45,0003.14
2023-08-14 15:56:00,SystemResetWarning,0841.8,5.00,000.00,029.4,028.0,000.0,037.9,031.0,21.3,0000.0,0007.98,0003.46,0003.13
2023-08-14 15:57:00,SystemResetWarning,0841.8,5.00,000.00,029.4,028.1,000.0,037.9,031.1,21.5,0000.0,0008.24,0003.48,0003.13
2023-08-14 15:58:00,SystemResetWarning,0841.8,4.99,000.00,029.4,028.2,000.0,037.9,031.1,21.1,0000.0,0008.14,0003.50,0003.13
2023-08-14 15:59:00,SystemResetWarning,0841.8,4.99,000.00,029.5,028.3,000.0,037.9,031.2,20.7,0000.0,0008.07,0003.53,0003.13
